Yunyao-1 57

operational
NORAD ID: 63293 Int'l Des: NNA 2025-055 Owner: YYAO Country: CN
LEOCIRCULARRETROGRADESSO

Yunyao-1 57について

説明を読み込み中...

リアルタイム位置

3D地球を読み込み中...

次回通過

高度履歴

Altitude vs Time

uPlot chart will show altitude changes over time

軌道要素

1 63293U 25055C 26063.18286028 .00020196 00000-0 97608-3 0 9993
2 63293 97.6347 203.6798 0012177 159.7179 200.4540 15.18596433 53191
Epoch: Mar 4, 2026 • Age: 18 hours

現在のステータス

高度 506.6 km
速度 7.61 km/s
衛星直下点 -5.62°S, 46.82°W
打ち上げ日 Mar 17, 2025
運用期間 0.9 years
タイプ other

技術仕様

分類 Payload
質量 50.00 kg
乾燥質量 50.00 kg
総質量 50.00 kg
長さ 2.00 m
直径 1.50 m
スパン 5.00 m
形状 Box + pan
製造者 CGSTL
バスタイプ YY-1
フェーズステータス In Orbit
所有者/国 YYAO/CN

大規模コンステレーション

Loading constellations...